User: anonymous   Login
Location: Raven Hill Discovery Center
(45.1336°N, 85.0553°W)
Time: 04:57:52
(UTC-04:00)
Language:

Cosmos 1470 - Orbit

View from above orbital plane
View from above orbital plane
View from above satellite
View from above satellite

Ground track
Ground track

The orbit data is extracted from the following two-line orbital elements,

1 14147U 83061A   17292.89867923  .00001150  00000-0  67360-4 0  9991
2 14147  82.4822 276.4989 0015615 185.3421 174.7645 15.10754588623641
Epoch (UTC): 19 October 2017 21:34:05
Eccentricity: 0.0015615
inclination: 82.4822°
perigee height: 523 km
apogee height: 544 km
right ascension of ascending node: 276.4989°
argument of perigee: 185.3421°
revolutions per day: 15.10754588
mean anomaly at epoch: 174.7645°
orbit number at epoch: 62364

The dashed part of the orbit path shows where the satellite is in the earth's shadow,  

DLR